Regional Weather Roundup
Issued by NWS

Home | Current Version | Previous Version | Text Only | Print | Product List | Glossary On
Versions: 1 2 3 4 5 6 7 8 9 10 11 12 13 14 15 16 17 18 19 20 21 22 23 24 25 26 27 28 29 30 31 32 33 34 35 36 37 38 39 40 41 42 43 44 45 46 47 48 49 50
000
ASUS43 KTOP 290308
RWRKS

WEATHER ROUNDUP FOR KANSAS
NATIONAL WEATHER SERVICE GOODLAND KS
1000 PM CDT FRI APR 28 2017

NOTE:  "FAIR" INDICATES FEW OR NO CLOUDS BELOW 12,000 FEET WITH NO
SIGNIFICANT WEATHER AND/OR OBSTRUCTIONS TO VISIBILITY.

KSZ001>006-013>018-027>032-041>047-290400-
NORTHWEST KANSAS

CITY           SKY/WX    TMP DP  RH WIND       PRES   REMARKS
GOODLAND       LGT SNOW  33  33 100 NE18      29.99R FOG     WCI  22
HAYS           CLOUDY    42  38  85 NE16      29.99R
HILL CITY      CLOUDY    39  36  89 NE14      30.04R WCI  31
RUSSELL        CLOUDY    43  39  86 NE15      29.98R
$$

KSZ061>065-074>080-084>089-290400-
SOUTHWEST KANSAS

CITY           SKY/WX    TMP DP  RH WIND       PRES   REMARKS
DODGE CITY     LGT RAIN  43  42  97 N21       29.90R FOG
ELKHART          N/A     44  38  79 E12         N/A
GARDEN CITY    RAIN      41  40  96 NE22      29.89F FOG
GREAT BEND     LGT RAIN  44  42  93 N16       29.97R
LIBERAL        LGT RAIN  47  46  97 NE18G26   29.80F
PRATT          LGT RAIN  44  41  89 N24G30    29.87R
$$

KSZ066>073-081>083-090>101-290400-
SOUTHEAST KANSAS

CITY           SKY/WX    TMP DP  RH WIND       PRES   REMARKS
CHANUTE        CLOUDY    62  56  80 E6        29.82R
COFFEYVILLE    CLOUDY    62  58  86 NE8       29.78R
HUTCHINSON     CLOUDY    48  44  86 N21       29.88R
MEDICINE LODGE   N/A     52  47  83 N24G32    29.79R
NEWTON         CLOUDY    47  45  93 N21G28    29.86R
PARSONS        CLOUDY    61  56  83 CALM      29.81R
WICHITA INTL   CLOUDY    54  48  80 N23G29    29.84R
WICHITA JABRA  CLOUDY    53  48  83 N20G31    29.83R
WICHITA MCCONL CLOUDY    55  49  80 NE23G32   29.82R
WINFIELD       PTCLDY    65  56  72 E8        29.79R
$$

KSZ007>012-019>026-033>040-048>060-102>105-290400-
NORTHEAST KANSAS

CITY           SKY/WX    TMP DP  RH WIND       PRES   REMARKS
CONCORDIA      CLOUDY    41  39  93 NE13      29.99R
EMPORIA        CLOUDY    49  49 100 N13       29.90R
LAWRENCE       CLOUDY    47  47 100 N12       29.93R
MANHATTAN      CLOUDY    45  42  89 NE12      29.95R
MARYSVILLE     CLOUDY    41  39  93 NE10      29.98R
OLATHE IND     CLOUDY    49  48  97 N14       29.92R FOG
OLATHE EXE     CLOUDY    50  50 100 N13       29.90R
SALINA         CLOUDY    46  41  82 N15       29.96R
TOPEKA BILLARD CLOUDY    47  45  93 N13       29.94R
TOPEKA FORBES  CLOUDY    48  46  93 N10       29.93R
$$



USA.gov is the U.S. government's official web portal to all federal, state and local government web resources and services.